Home   Weather   Jaisalmer   Past weeks

Flag for India Past Weather in Jaisalmer, Rajasthan, India — Yesterday and Last 2 Weeks

Now
68 °F

Haze.


Feels Like: 68 °F
Forecast: 56 / 79 °F
Wind: No wind

Location: Sukkur

Current Time: Dec 4, 2016 at 10:06:14 pm

Latest Report: Dec 4, 2016 at 9:30 pm


Visibility: 2 mi

Pressure: 30.04 "Hg

Humidity: 73%

Dew Point: 59 °F

Location of JaisalmerLocation

Past Weather in Jaisalmer — Graph

°F

Jaisalmer Temperature Yesterday

Maximum temperature yesterday: 86 °F (at 3:30 pm)
Minimum temperature yesterday: 55 °F (at 8:30 am)
Average temperature yesterday: 70 °F

High & Low Weather Summary for the Past Weeks

 TemperatureHumidityPressure
High90 °F (Nov 28, 3:30 pm)94% (Nov 21, 5:30 am)30.09 "Hg (Nov 21, 5:30 am)
Low55 °F (Nov 26, 8:30 am)25% (Nov 24, 2:30 pm)29.77 "Hg (Nov 20, 2:30 am)
Average72 °F62%29.94 "Hg
* Reported Nov 19 8:30 pm — Dec 4 8:30 pm, Jaisalmer, Weather by CustomWeather, © 2016

Note: Actual official high and low records may vary slightly from our data, if they occured in-between our weather recording intervals... More about our weather records

Advertising

Jaisalmer Weather History for the Previous 24 Hours

Scroll right to see more
 ConditionsComfort  
Time TempWeatherWind HumidityBarometerVisibility
8:30 pm
Sun, Dec 4
70 °FHaze.No wind64%30.04 "Hg2 mi
7:30 pm73 °FHaze.No wind65%30.01 "Hg2 mi
6:30 pm79 °FHaze.No wind48%30.01 "Hg2 mi
5:30 pm86 °FHaze.No wind31%30.01 "Hg2 mi
4:30 pm88 °FHaze.No wind33%29.98 "Hg2 mi
3:30 pm88 °FHaze.No wind33%29.98 "Hg2 mi
2:30 pm86 °FHaze.No wind31%30.01 "Hg2 mi
1:30 pm84 °FHaze.No wind35%30.04 "Hg2 mi
12:30 pm81 °FHaze.No wind37%30.07 "Hg2 mi
11:30 am77 °FHaze.No wind47%30.09 "Hg2 mi
9:30 am59 °FFog.No wind88%30.09 "Hg1 mi
8:30 am55 °FFog.No wind88%30.07 "Hg1 mi
7:30 am55 °FFog.No wind88%30.07 "Hg1 mi
6:30 am57 °FFog.No wind88%30.04 "Hg1 mi
12:30 am63 °FHaze.No wind77%30.07 "Hg2 mi
11:30 pm
Sat, Dec 3
64 °FHaze.No wind73%30.09 "Hg2 mi
10:30 pm66 °FHaze.No wind68%30.07 "Hg2 mi
Weather by CustomWeather, © 2016

See weather overviewHow to use our weather pages